Powrót do katalogu

FENGYUN 1C DEB

AktywnySSO
NORAD 31913·DEBRIS·🇨🇳 China

Wystrzelony May 10, 1999 z Taiyuan Satellite Launch Center

Loading…

Następne Przeloty (najbliższe 24 godziny)

TLE

Starzejące sięSource: Space-Track

Epoka: Sep 4, 2026, 00:58 UTC

1 31913U 99025CLQ 26247.04090319  .00001059  00000-0  72332-3 0  9994
2 31913  99.2843 173.9846 0192116 312.9975  45.5221 13.93569919595797

Śledź FENGYUN 1C DEB w czasie rzeczywistym z AllMySat

Download on the App Store